AI5YA-13 Weather Reports


Display with metric or nautical units.
time (UTC)temp
F
wind
direction
speed
MPH
gust
MPH
rain 1hr
in
rain 24hr
in
rain mn
in
humidity
%
barometer
mb
20260507174458 64 77 0.0 0.0 0.00 0.00 0.00 53 1019.8
20260507173956 63 116 0.0 0.0 0.00 0.00 0.00 54 1019.8
20260507173453 64 119 0.0 0.0 0.00 0.00 0.00 53 1019.8
20260507172950 63 145 0.0 0.0 0.00 0.00 0.00 55 1019.9
20260507172446 63 79 0.0 0.0 0.00 0.00 0.00 55 1020.2
20260507171942 63 91 0.0 0.0 0.00 0.00 0.00 54 1020.3
20260507171438 63 105 0.0 0.0 0.00 0.00 0.00 55 1020.2
20260507170936 61 72 0.0 0.0 0.00 0.00 0.00 58 1020.7
20260507170432 63 103 0.0 0.0 0.00 0.00 0.00 55 1020.4
20260507165929 61 105 0.0 0.0 0.00 0.00 0.00 57 1020.7
20260507165425 62 90 0.0 0.0 0.00 0.00 0.00 57 1020.6
20260507164920 60 100 0.0 0.0 0.00 0.00 0.00 59 1020.6
20260507164418 60 98 0.0 0.0 0.00 0.00 0.00 58 1020.6
20260507163915 60 93 0.0 0.0 0.00 0.00 0.00 60 1020.7
20260507163412 60 69 0.0 0.0 0.00 0.00 0.00 61 1020.8
20260507162909 60 85 0.0 0.0 0.00 0.00 0.00 60 1020.8
20260507162404 59 96 0.0 0.0 0.00 0.00 0.00 61 1021.0
20260507161902 59 92 0.0 0.0 0.00 0.00 0.00 62 1021.2
20260507161358 58 59 0.0 0.0 0.00 0.00 0.00 63 1021.1
20260507160855 58 86 0.0 0.0 0.00 0.00 0.00 63 1021.0
20260507160350 59 110 0.0 0.0 0.00 0.00 0.00 63 1021.0
20260507155847 58 110 0.0 0.0 0.00 0.00 0.00 64 1021.1
20260507155342 58 146 0.0 0.0 0.00 0.00 0.00 65 1021.2
20260507154840 57 94 0.0 0.0 0.00 0.00 0.00 66 1021.2
20260507154337 57 116 0.0 0.0 0.00 0.00 0.00 65 1021.3
20260507153834 56 95 0.0 0.0 0.00 0.00 0.00 67 1021.5
20260507153330 56 105 0.0 0.0 0.00 0.00 0.00 69 1021.3
20260507152827 56 120 0.0 0.0 0.00 0.00 0.00 68 1021.4
20260507152323 56 91 0.0 0.0 0.00 0.00 0.00 69 1021.4
20260507151819 55 98 0.0 0.0 0.00 0.00 0.00 69 1021.5
20260507151315 55 72 0.0 0.0 0.00 0.00 0.00 70 1021.5
20260507150813 55 111 0.0 0.0 0.00 0.00 0.00 71 1021.5
20260507150309 55 95 0.0 0.0 0.00 0.00 0.00 71 1021.7
20260507145805 55 100 0.0 0.0 0.00 0.00 0.00 71 1021.5
20260507145306 54 97 0.0 0.0 0.00 0.00 0.00 71 1021.4
20260507144759 54 86 0.0 0.0 0.00 0.00 0.00 72 1021.8
20260507144256 54 91 0.0 0.0 0.00 0.00 0.00 72 1021.8
20260507143753 54 110 0.0 0.0 0.00 0.00 0.00 72 1021.4
20260507143250 53 107 0.0 0.0 0.00 0.00 0.00 74 1021.9
20260507142746 53 85 0.0 0.0 0.00 0.00 0.00 74 1021.8
20260507142243 53 72 0.0 0.0 0.00 0.00 0.00 74 1021.4
20260507141739 53 84 0.0 0.0 0.00 0.00 0.00 75 1021.5
20260507141236 53 107 0.0 0.0 0.00 0.00 0.00 75 1021.7
20260507140732 52 94 0.0 0.0 0.00 0.00 0.00 76 1021.7
20260507140230 53 100 0.0 0.0 0.00 0.00 0.00 75 1021.9
20260507135727 52 119 0.0 0.0 0.00 0.00 0.00 77 1021.5
20260507135224 52 97 0.0 0.0 0.00 0.00 0.00 77 1021.3
20260507134720 52 91 0.0 0.0 0.00 0.00 0.00 78 1021.7
20260507134216 51 79 0.0 0.0 0.00 0.00 0.00 78 1021.3
20260507133713 52 71 0.0 0.0 0.00 0.00 0.00 78 1021.3
20260507133210 51 85 0.0 0.0 0.00 0.00 0.00 79 1021.7
20260507132707 51 97 0.0 0.0 0.00 0.00 0.00 79 1021.4
20260507132203 51 107 0.0 0.0 0.00 0.00 0.00 80 1021.4
20260507131700 51 93 0.0 0.0 0.00 0.00 0.00 80 1021.5
20260507131158 51 116 0.0 0.0 0.00 0.00 0.00 80 1021.1
20260507130654 51 69 0.0 0.0 0.00 0.00 0.00 80 1021.1
20260507130152 51 94 0.0 0.0 0.00 0.00 0.00 80 1021.3
20260507125651 51 93 0.0 0.0 0.00 0.00 0.00 81 1020.8
20260507125148 51 81 0.0 0.0 0.00 0.00 0.00 81 1020.7
20260507124644 51 98 0.0 0.0 0.00 0.00 0.00 81 1020.8
20260507124142 51 132 0.0 0.0 0.00 0.00 0.00 81 1020.6
20260507123640 51 86 0.0 0.0 0.00 0.00 0.00 81 1020.3
20260507123137 51 85 0.0 0.0 0.00 0.00 0.00 81 1020.4
20260507122632 50 110 0.0 0.0 0.00 0.00 0.00 81 1020.3
20260507122128 50 89 0.0 0.0 0.00 0.00 0.00 81 1020.4
20260507121624 50 112 0.0 0.0 0.00 0.00 0.00 81 1020.4
20260507121120 50 81 0.0 0.0 0.00 0.00 0.00 81 1020.4
20260507120616 50 87 0.0 0.0 0.00 0.00 0.00 81 1020.4
20260507120113 51 81 0.0 0.0 0.00 0.00 0.00 80 1020.2
20260507115609 51 83 0.0 0.0 0.00 0.00 0.00 80 1020.4
20260507115105 51 78 0.0 0.0 0.00 0.00 0.00 80 1020.3
20260507114601 51 74 0.0 0.0 0.00 0.00 0.00 79 1020.4
20260507114059 51 82 0.0 0.0 0.00 0.00 0.00 79 1020.3
20260507113555 51 89 0.0 0.0 0.00 0.00 0.00 79 1020.6
20260507113053 51 98 0.0 0.0 0.00 0.00 0.00 79 1020.0
20260507112551 51 85 0.0 0.0 0.00 0.00 0.00 78 1020.3
20260507112047 51 103 0.0 0.0 0.00 0.00 0.00 78 1020.2
20260507111544 51 86 0.0 0.0 0.00 0.00 0.00 78 1020.2
20260507111041 51 79 0.0 0.0 0.00 0.00 0.00 78 1020.2
20260507110537 52 83 0.0 0.0 0.00 0.00 0.00 77 1020.6
20260507110034 52 83 0.0 0.0 0.00 0.00 0.00 77 1020.0
20260507105531 52 87 0.0 0.0 0.00 0.00 0.00 77 1020.3
20260507105027 52 94 0.0 0.0 0.00 0.00 0.00 76 1020.2
20260507104524 52 85 0.0 0.0 0.00 0.00 0.00 76 1020.1
20260507104021 52 97 0.0 0.0 0.00 0.00 0.00 76 1019.9
20260507103517 52 85 0.0 0.0 0.00 0.00 0.00 76 1020.4
20260507103013 52 85 0.0 0.0 0.00 0.00 0.00 75 1020.2
20260507102510 52 80 0.0 0.0 0.00 0.00 0.00 75 1020.0
20260507102007 53 72 0.0 0.0 0.00 0.00 0.00 74 1020.3
20260507101502 53 82 0.0 0.0 0.00 0.00 0.00 74 1019.8
20260507100959 53 91 0.0 0.0 0.00 0.00 0.00 74 1020.3
20260507100456 53 75 0.0 0.0 0.00 0.00 0.00 74 1020.1
20260507095954 53 88 0.0 0.0 0.00 0.00 0.00 73 1020.1
20260507095452 53 90 0.0 0.0 0.00 0.00 0.00 73 1020.0
20260507094948 53 100 0.0 0.0 0.00 0.00 0.00 73 1020.1
20260507094444 53 85 0.0 0.0 0.00 0.00 0.00 72 1019.9
20260507093941 53 86 0.0 0.0 0.00 0.00 0.00 72 1020.0
20260507093439 54 96 0.0 0.0 0.00 0.00 0.00 72 1020.1
20260507092937 54 90 0.0 0.0 0.00 0.00 0.00 72 1020.0
20260507092433 54 79 0.0 0.0 0.00 0.00 0.00 71 1019.9
20260507091930 54 99 0.0 0.0 0.00 0.00 0.00 71 1019.8
20260507091427 54 78 0.0 0.0 0.00 0.00 0.00 71 1019.9
20260507090922 54 85 0.0 0.0 0.00 0.00 0.00 70 1019.2
20260507090419 54 89 0.0 0.0 0.00 0.00 0.00 70 1019.1
20260507085915 55 103 0.0 0.0 0.00 0.00 0.00 69 1019.2
20260507085412 55 95 0.0 0.0 0.00 0.00 0.00 69 1019.1
20260507084910 55 95 0.0 0.0 0.00 0.00 0.00 69 1019.3
20260507084406 55 89 0.0 0.0 0.00 0.00 0.00 68 1019.2
20260507083903 55 77 0.0 0.0 0.00 0.00 0.00 68 1019.1
20260507083400 55 75 0.0 0.0 0.00 0.00 0.00 67 1019.1
20260507082856 55 81 0.0 0.0 0.00 0.00 0.00 67 1019.0
20260507082352 55 75 0.0 0.0 0.00 0.00 0.00 67 1019.3
20260507081849 56 97 0.0 0.0 0.00 0.00 0.00 66 1019.3
20260507081345 56 105 0.0 0.0 0.00 0.00 0.00 66 1018.9
20260507080842 56 98 0.0 0.0 0.00 0.00 0.00 65 1019.2
20260507080338 56 77 0.0 0.0 0.00 0.00 0.00 65 1018.9
20260507075834 57 78 0.0 0.0 0.00 0.00 0.00 64 1019.0
20260507075330 57 94 0.0 0.0 0.00 0.00 0.00 64 1019.0
20260507074826 57 92 0.0 0.0 0.00 0.00 0.00 64 1018.9
20260507074324 57 98 0.0 0.0 0.00 0.00 0.00 64 1018.9
20260507073821 57 66 0.0 0.0 0.00 0.00 0.00 63 1019.0
20260507073318 58 87 0.0 0.0 0.00 0.00 0.00 63 1018.5
20260507072815 58 86 0.0 0.0 0.00 0.00 0.00 62 1018.2
20260507072312 58 100 0.0 0.0 0.00 0.00 0.00 62 1018.2
20260507071809 58 113 0.0 0.0 0.00 0.00 0.00 62 1018.2
20260507071306 58 126 0.0 0.0 0.00 0.00 0.00 61 1018.2
20260507070803 58 81 0.0 0.0 0.00 0.00 0.00 61 1018.5
20260507070300 58 92 0.0 0.0 0.00 0.00 0.00 61 1018.2
20260507065757 58 99 0.0 0.0 0.00 0.00 0.00 60 1018.2
20260507065253 59 87 0.0 0.0 0.00 0.00 0.00 60 1018.0
20260507064750 59 94 0.0 0.0 0.00 0.00 0.00 60 1017.7
20260507064249 59 115 0.0 0.0 0.00 0.00 0.00 59 1017.9
20260507063746 59 94 0.0 0.0 0.00 0.00 0.00 59 1017.5
20260507063243 59 101 0.0 0.0 0.00 0.00 0.00 59 1017.7
20260507062740 59 119 0.0 0.0 0.00 0.00 0.00 58 1017.7
20260507062237 60 104 0.0 0.0 0.00 0.00 0.00 58 1017.5
20260507061735 60 108 0.0 0.0 0.00 0.00 0.00 57 1017.6
20260507061233 60 92 0.0 0.0 0.00 0.00 0.00 57 1017.6
20260507060731 60 113 0.0 0.0 0.00 0.00 0.00 57 1017.4
20260507060227 60 101 0.0 0.0 0.00 0.00 0.00 57 1017.7
20260507055723 61 99 0.0 0.0 0.00 0.00 0.00 56 1017.5
20260507055219 61 79 0.0 0.0 0.00 0.00 0.00 56 1017.8
20260507054715 61 99 0.0 0.0 0.00 0.00 0.00 56 1017.5
20260507054213 61 107 0.0 0.0 0.00 0.00 0.00 55 1017.1
20260507053710 61 100 0.0 0.0 0.00 0.00 0.00 55 1017.4
20260507053208 62 92 0.0 0.0 0.00 0.00 0.00 54 1017.3
20260507052706 62 110 0.0 0.0 0.00 0.00 0.00 53 1016.9
20260507052202 62 100 0.0 0.0 0.00 0.00 0.00 53 1017.3
20260507051700 62 120 0.0 0.0 0.00 0.00 0.00 52 1017.1
20260507051156 63 115 0.0 0.0 0.00 0.00 0.00 52 1016.9
20260507050653 63 148 0.0 0.0 0.00 0.00 0.00 52 1016.9
20260507050150 63 122 0.0 0.0 0.00 0.00 0.00 51 1016.7
20260507045647 63 107 0.0 0.0 0.00 0.00 0.00 51 1016.6
20260507045143 64 166 0.0 0.0 0.00 0.00 0.00 51 1016.6
20260507044640 64 128 0.0 0.0 0.00 0.00 0.00 51 1016.5
20260507044137 64 116 0.0 0.0 0.00 0.00 0.00 50 1016.9
20260507043633 64 126 0.0 0.0 0.00 0.00 0.00 51 1016.7
20260507043130 64 112 0.0 0.0 0.00 0.00 0.00 50 1016.8
20260507042627 65 114 0.0 0.0 0.00 0.00 0.00 51 1016.5
20260507042122 65 98 0.0 0.0 0.00 0.00 0.00 51 1016.8
20260507041619 65 114 0.0 0.0 0.00 0.00 0.00 51 1016.3
20260507041116 65 110 0.0 0.0 0.00 0.00 0.00 50 1016.4
20260507040613 66 111 0.0 0.0 0.00 0.00 0.00 50 1016.3
20260507040109 66 120 0.0 0.0 0.00 0.00 0.00 49 1016.2
20260507035605 66 107 0.0 0.0 0.00 0.00 0.00 48 1015.7
20260507035101 66 123 0.0 0.0 0.00 0.00 0.00 48 1015.6
20260507034558 67 104 0.0 0.0 0.00 0.00 0.00 48 1015.5
20260507034056 67 124 0.0 0.0 0.00 0.00 0.00 48 1015.3
20260507033554 67 101 0.0 0.0 0.00 0.00 0.00 48 1015.4
20260507033051 67 127 0.0 0.0 0.00 0.00 0.00 47 1015.2
20260507032548 67 98 0.0 0.0 0.00 0.00 0.00 47 1014.8
20260507032044 68 95 0.0 0.0 0.00 0.00 0.00 46 1014.8
20260507031541 68 112 0.0 0.0 0.00 0.00 0.00 46 1014.7
20260507031038 68 106 0.0 0.0 0.00 0.00 0.00 45 1014.6
20260507030534 69 154 0.0 0.0 0.00 0.00 0.00 45 1014.7
20260507030032 69 139 0.0 0.0 0.00 0.00 0.00 44 1014.4
20260507025529 69 112 0.0 0.0 0.00 0.00 0.00 43 1014.3
20260507025026 70 126 0.0 0.0 0.00 0.00 0.00 41 1014.3
20260507024524 70 120 0.0 0.0 0.00 0.00 0.00 40 1014.3
20260507024020 70 135 0.0 0.0 0.00 0.00 0.00 40 1014.2
20260507023516 71 135 0.0 0.0 0.00 0.00 0.00 39 1013.6
20260507023015 71 146 0.0 0.0 0.00 0.00 0.00 38 1014.0
20260507022511 71 163 0.0 0.0 0.00 0.00 0.00 38 1013.5
20260507022006 72 108 0.0 0.0 0.00 0.00 0.00 38 1013.5
20260507021502 72 137 0.0 0.0 0.00 0.00 0.00 38 1013.4
20260507020959 72 136 0.0 0.0 0.00 0.00 0.00 38 1013.4
20260507020456 72 130 0.0 0.0 0.00 0.00 0.00 38 1013.4
20260507015953 73 169 0.0 0.0 0.00 0.00 0.00 38 1013.3
20260507015452 73 148 0.0 0.0 0.00 0.00 0.00 37 1013.3
20260507014948 73 128 0.0 0.0 0.00 0.00 0.00 37 1013.3
20260507014445 73 145 0.0 0.0 0.00 0.00 0.00 36 1013.2
20260507013941 74 158 0.0 0.0 0.00 0.00 0.00 36 1013.1
20260507013438 74 147 0.0 0.0 0.00 0.00 0.00 35 1013.0
20260507012935 74 147 0.0 0.0 0.00 0.00 0.00 35 1013.2
20260507012432 75 129 0.0 0.0 0.00 0.00 0.00 34 1013.1
20260507011928 75 170 0.0 0.0 0.00 0.00 0.00 34 1012.9
20260507011426 75 124 0.0 0.0 0.00 0.00 0.00 34 1013.1
20260507010926 75 138 0.0 0.0 0.00 0.00 0.00 33 1013.0
20260507010421 75 138 0.0 0.0 0.00 0.00 0.00 33 1012.6
20260507005919 76 141 0.0 0.0 0.00 0.00 0.00 33 1012.8
20260507005415 76 142 0.0 0.0 0.00 0.00 0.00 33 1012.6
20260507004912 76 143 0.0 0.0 0.00 0.00 0.00 32 1012.4
20260507004409 76 148 0.0 0.0 0.00 0.00 0.00 32 1012.8
20260507003906 76 159 0.0 0.0 0.00 0.00 0.00 33 1012.5
20260507003401 76 160 0.0 0.0 0.00 0.00 0.00 33 1012.9
20260507002857 76 98 0.0 0.0 0.00 0.00 0.00 33 1012.5
20260507002353 76 123 0.0 0.0 0.00 0.00 0.00 33 1012.5
20260507001850 76 146 0.0 0.0 0.00 0.00 0.00 33 1012.5
20260507001347 76 165 0.0 0.0 0.00 0.00 0.00 33 1012.3
20260507000844 77 99 0.0 0.0 0.00 0.00 0.00 33 1012.8
20260507000339 76 99 0.0 0.0 0.00 0.00 0.00 33 1012.6
20260506235836 77 130 0.0 0.0 0.00 0.00 0.00 33 1012.4
20260506235333 77 158 0.0 0.0 0.00 0.00 0.00 32 1012.3
20260506234829 76 102 0.0 0.0 0.00 0.00 0.00 32 1012.5
20260506234327 76 100 0.0 0.0 0.00 0.00 0.00 32 1012.5
20260506233824 77 178 0.0 0.0 0.00 0.00 0.00 32 1012.8
20260506233319 77 122 0.0 0.0 0.00 0.00 0.00 32 1012.6
20260506232817 77 153 0.0 0.0 0.00 0.00 0.00 32 1012.4
20260506232312 77 138 0.0 0.0 0.00 0.00 0.00 32 1012.3
20260506231809 76 127 0.0 0.0 0.00 0.00 0.00 34 1012.6
20260506231307 76 160 0.0 0.0 0.00 0.00 0.00 33 1012.5
20260506230804 77 145 0.0 0.0 0.00 0.00 0.00 33 1012.6
20260506230301 76 97 0.0 0.0 0.00 0.00 0.00 33 1012.5
20260506225757 76 144 0.0 0.0 0.00 0.00 0.00 34 1012.5
20260506225254 76 159 0.0 0.0 0.00 0.00 0.00 34 1012.6
20260506224751 76 116 0.0 0.0 0.00 0.00 0.00 33 1012.5
20260506224249 77 211 0.0 0.0 0.00 0.00 0.00 34 1012.5
20260506223744 77 104 0.0 0.0 0.00 0.00 0.00 33 1012.5
20260506223240 76 214 0.0 0.0 0.00 0.00 0.00 34 1012.4
20260506222737 76 146 0.0 0.0 0.00 0.00 0.00 34 1012.4
20260506222233 75 126 0.0 0.0 0.00 0.00 0.00 35 1012.6
20260506221731 76 110 0.0 0.0 0.00 0.00 0.00 34 1012.6
20260506221229 77 233 0.0 0.0 0.00 0.00 0.00 34 1012.6
20260506220726 77 146 0.0 0.0 0.00 0.00 0.00 34 1012.4
20260506220220 75 206 0.0 0.0 0.00 0.00 0.00 35 1013.0
20260506215717 74 108 0.0 0.0 0.00 0.00 0.00 37 1012.8
20260506215213 75 120 0.0 1.0 0.00 0.00 0.00 35 1012.8
20260506214710 75 117 0.0 0.0 0.00 0.00 0.00 36 1012.8
20260506214207 75 154 0.0 0.0 0.00 0.00 0.00 36 1012.8
20260506213705 74 117 0.0 0.0 0.00 0.00 0.00 37 1013.0
20260506213202 74 125 0.0 0.0 0.00 0.00 0.00 36 1012.9
20260506212659 73 112 0.0 0.0 0.00 0.00 0.00 38 1013.1
20260506212154 74 119 0.0 0.0 0.00 0.00 0.00 37 1013.0
20260506211650 73 90 0.0 0.0 0.00 0.00 0.00 38 1013.2
20260506211147 74 102 0.0 0.0 0.00 0.00 0.00 36 1013.3
20260506210644 74 124 0.0 0.0 0.00 0.00 0.00 37 1013.4
20260506210140 73 147 0.0 0.0 0.00 0.00 0.00 38 1013.3
20260506205638 73 163 0.0 0.0 0.00 0.00 0.00 37 1013.6
20260506205132 74 124 0.0 0.0 0.00 0.00 0.00 37 1013.5
20260506204631 73 123 0.0 0.0 0.00 0.00 0.00 37 1013.7
20260506204127 73 143 0.0 0.0 0.00 0.00 0.00 38 1013.7
20260506203626 72 97 0.0 0.0 0.00 0.00 0.00 39 1013.7
20260506203122 73 146 0.0 0.0 0.00 0.00 0.00 38 1013.7
20260506202620 72 110 0.0 0.0 0.00 0.00 0.00 39 1013.7
20260506202116 72 98 0.0 0.0 0.00 0.00 0.00 40 1014.0
20260506201613 72 155 0.0 0.0 0.00 0.00 0.00 38 1014.2
20260506201109 72 100 0.0 0.0 0.00 0.00 0.00 39 1014.0
20260506200606 72 84 0.0 0.0 0.00 0.00 0.00 39 1014.6
20260506195559 71 158 0.0 0.0 0.00 0.00 0.00 40 1014.3
20260506195056 69 135 0.0 0.0 0.00 0.00 0.00 42 1014.5
20260506194554 70 115 0.0 0.0 0.00 0.00 0.00 43 1014.6
20260506194049 71 101 0.0 0.0 0.00 0.00 0.00 41 1014.4
20260506193547 69 146 0.0 0.0 0.00 0.00 0.00 43 1014.6
20260506193045 69 90 0.0 0.0 0.00 0.00 0.00 44 1014.6
20260506192541 68 121 0.0 0.0 0.00 0.00 0.00 46 1014.5
20260506192037 69 112 0.0 0.0 0.00 0.00 0.00 45 1014.6
20260506191534 68 130 0.0 0.0 0.00 0.00 0.00 45 1014.6
20260506191030 68 104 0.0 0.0 0.00 0.00 0.00 45 1014.8
20260506190527 67 77 0.0 0.0 0.00 0.00 0.00 47 1014.8
20260506190024 66 116 0.0 0.0 0.00 0.00 0.00 48 1014.4
20260506185521 67 81 0.0 0.0 0.00 0.00 0.00 48 1014.8
20260506185018 66 77 0.0 0.0 0.00 0.00 0.00 48 1014.8
20260506184515 66 138 0.0 0.0 0.00 0.00 0.00 48 1015.1
20260506184012 66 112 0.0 0.0 0.00 0.00 0.00 49 1015.2
20260506183508 65 93 0.0 0.0 0.00 0.00 0.00 50 1015.5
20260506183006 65 149 0.0 0.0 0.00 0.00 0.00 50 1015.4
20260506182502 65 86 0.0 0.0 0.00 0.00 0.00 50 1015.7
20260506181959 64 82 0.0 0.0 0.00 0.00 0.00 51 1015.5
20260506181457 65 97 0.0 0.0 0.00 0.00 0.00 51 1015.5
20260506180954 63 116 0.0 0.0 0.00 0.00 0.00 53 1015.5
20260506180450 63 150 0.0 0.0 0.00 0.00 0.00 53 1015.6
20260506175947 63 136 0.0 0.0 0.00 0.00 0.00 54 1015.6
20260506175444 63 144 0.0 0.0 0.00 0.00 0.00 55 1015.9
20260506174940 63 112 0.0 0.0 0.00 0.00 0.00 53 1015.6